[[{"header":{"parameterUnit":"m.s-1","parameterCategory":1,"la1":30.2991,"la2":30.254,"lo1":-89.0895,"lo2":-89.0444,"dy":0.0017,"dx":0.0017,"nx":28,"ny":28,"refTime":"2024-04-17T03:00:00:Z","depth":0,"parameterNumber":2,"parameterNumberName":"U-component_of_WINDS"},"data":[0,0,0,0,0,0,0,0,0,0,0,0,0,0,0,0,0,0,0,0,0,0,0,0,0,0,0,0,0,0,0,0,0,0,0,0,0,0,0,0,0,0,0,0,0,0,0,0,0,0,0,0,0,0,0,0,0,0,-2.2906,-2.2906,0,-2.2913,-2.2913,-2.2913,-2.288,-2.2879,-2.2878,-2.2878,-2.2885,-2.2886,-2.2887,0,0,0,0,0,0,0,0,0,0,0,0,0,-2.2863,-2.2864,-2.2906,-2.2906,-2.2906,-2.2913,-2.2913,-2.2913,-2.2881,-2.2879,-2.2878,-2.2877,-2.2884,-2.2886,-2.2887,0,0,0,0,0,0,0,0,0,0,0,0,0,-2.2877,-2.2865,-2.2906,-2.289,-2.2889,-2.2913,-2.2913,-2.2913,-2.2881,-2.2879,-2.2878,-2.2877,-2.2884,-2.2885,-2.2887,-2.2926,0,0,-2.2892,-2.2893,0,0,0,0,0,0,0,0,-2.2877,-2.2879,-2.2893,-2.2892,-2.289,-2.2894,-2.2901,-2.2918,-2.2881,-2.2884,-2.2878,-2.2876,-2.2889,-2.289,-2.2895,-2.2926,-2.2927,-2.2892,-2.2893,-2.2894,-2.2894,0,0,0,0,0,0,0,-2.2876,-2.2878,-2.2909,-2.2893,-2.2891,-2.2883,-2.2884,-2.2904,-2.2894,-2.2884,-2.2881,-2.2883,-2.2888,-2.2893,-2.2895,-2.2927,-2.2892,-2.2894,-2.2895,-2.2895,-2.299,-2.2991,0,0,0,0,0,0,-2.2877,-2.2878,-2.2908,-2.2909,-2.288,-2.2885,-2.2886,-2.2894,-2.2894,-2.2893,-2.2884,-2.2881,-2.2891,-2.2893,-2.2895,-2.2939,-2.2894,-2.2895,-2.2896,-2.2988,-2.299,-2.2992,0,0,0,0,0,0,-2.2876,-2.288,-2.2908,-2.2893,-2.2896,-2.2887,-2.2898,-2.2895,-2.29,-2.2894,-2.2892,-2.2891,-2.289,-2.2892,-2.2918,-2.2939,-2.2896,-2.2898,-2.2987,-2.2989,-2.2991,-2.303,0,0,0,0,0,0,-2.2875,-2.288,-2.2894,-2.2893,-2.2897,-2.2932,-2.2899,-2.2897,-2.2903,-2.29,-2.29,-2.2899,-2.2889,-2.2916,-2.292,-2.2941,-2.2899,-2.2985,-2.2988,-2.299,-2.3027,-2.3033,-2.3039,0,0,0,0,0,-2.2873,-2.2905,-2.2895,-2.2899,-2.2915,-2.2933,-2.2935,-2.2923,-2.2905,-2.292,-2.2916,-2.2899,-2.2937,-2.2919,-2.2923,-2.2945,-2.2983,-2.2987,-2.299,-2.3024,-2.3032,-2.3039,0,0,0,0,0,0,-2.2908,-2.2904,-2.2894,-2.2926,-2.293,-2.2927,-2.2945,-2.2932,-2.2941,-2.2937,-2.2922,-2.2923,-2.2951,-2.2951,-2.2931,-2.2982,-2.2957,-2.2961,-2.2981,-2.2989,-2.2995,-2.2993,-2.29,0,0,0,0,0,-2.292,-2.2935,-2.2931,-2.2959,-2.2962,-2.2954,-2.2961,-2.2952,-2.2955,-2.2957,-2.2955,-2.2959,-2.2972,-2.298,-2.2992,-2.3027,-2.3026,-2.3044,-2.305,-2.3055,-2.3059,-2.3077,-2.3084,-2.3003,-2.3003,-2.3003,0,0,-2.2943,-2.2943,-2.2954,-2.2967,-2.2969,-2.2984,-2.2955,-2.2973,-2.2985,-2.2959,-2.2983,-2.2983,-2.2986,-2.3017,-2.303,-2.3017,-2.3081,-2.3059,-2.3063,-2.3064,-2.3081,-2.3089,-2.3095,-2.3006,-2.3005,-2.3005,0,0,-2.2994,-2.2996,-2.302,-2.3023,-2.3027,-2.3021,-2.3027,-2.3026,-2.3025,-2.3049,-2.303,-2.3044,-2.3066,-2.3069,-2.3074,-2.3127,-2.3111,-2.3131,-2.3162,-2.318,-2.3186,-2.3192,-2.321,-2.3217,-2.3135,-2.3135,-2.3135,0,-2.3023,-2.3046,-2.3034,-2.3053,-2.3059,-2.3038,-2.3061,-2.3065,-2.3072,-2.3077,-2.3063,-2.309,-2.3091,-2.3122,-2.3135,-2.314,-2.3145,-2.313,-2.3187,-2.3192,-2.3197,-2.3214,-2.3221,-2.3137,-2.3137,-2.3137,-2.3137,0,-2.3081,-2.3098,-2.3117,-2.3124,-2.3133,-2.3154,-2.3145,-2.3155,-2.3145,-2.3141,-2.3165,-2.3166,-2.3177,-2.3184,-2.3174,-2.3213,-2.3205,-2.3189,-2.3163,-2.3207,-2.3223,-2.3229,-2.3141,-2.314,-2.3139,-2.3139,0,0,-2.3153,-2.3154,-2.3161,-2.3164,-2.3167,-2.318,-2.32,-2.3211,-2.322,-2.3226,-2.3242,-2.3262,-2.3247,-2.3253,-2.3244,-2.3259,-2.33,-2.3241,-2.3241,-2.3251,-2.3343,-2.3354,-2.3361,-2.3291,-2.3292,-2.3293,-2.3342,0,-2.3203,-2.3238,-2.3227,-2.3262,-2.3277,-2.3257,-2.3275,-2.3279,-2.3276,-2.3288,-2.3284,-2.3298,-2.3278,-2.3281,-2.3296,-2.3292,-2.3318,-2.3289,-2.3305,-2.3306,-2.3304,-2.337,-2.3382,-2.3427,-2.3348,-2.3349,-2.335,0,-2.3264,-2.3273,-2.331,-2.331,-2.3316,-2.3332,-2.3341,-2.3353,-2.3357,-2.3353,-2.336,-2.3347,-2.3368,-2.3343,-2.337,-2.335,-2.3357,-2.3356,-2.3358,-2.3358,-2.333,-2.337,-2.3442,-2.3448,-2.336,-2.3359,-2.3358,0,-2.3312,-2.3333,-2.3357,-2.3361,-2.3362,-2.3374,-2.3375,-2.3377,-2.3384,-2.3393,-2.3397,-2.3408,-2.3413,-2.3422,-2.3412,-2.3395,-2.3441,-2.3415,-2.3438,-2.3438,-2.3447,-2.3447,-2.352,-2.3454,-2.3454,-2.3453,-2.3453,0,-2.3367,-2.339,-2.3379,-2.3394,-2.3419,-2.3407,-2.3432,-2.3431,-2.3433,-2.3448,-2.3432,-2.3445,-2.3433,-2.3446,-2.3439,-2.3462,-2.3465,-2.3462,-2.346,-2.3463,-2.3463,-2.3466,-2.3462,-2.3455,-2.3455,-2.3455,-2.3454,0,-2.3424,-2.3417,-2.3443,-2.3442,-2.3442,-2.3461,-2.346,-2.3474,-2.347,-2.3488,-2.3492,-2.3485,-2.3499,-2.3491,-2.3506,-2.3501,-2.3531,-2.3525,-2.353,-2.3528,-2.355,-2.3548,-2.3626,-2.3636,-2.3565,-2.3566,-2.3566,0,-2.3459,-2.3476,-2.3478,-2.3486,-2.3488,-2.3502,-2.3509,-2.3499,-2.3507,-2.3513,-2.3526,-2.3539,-2.3548,-2.3571,-2.3568,-2.3579,-2.3572,-2.3599,-2.3574,-2.3576,-2.3571,-2.357,-2.3571,-2.3604,-2.3605,-2.3605,-2.3606,0,-2.3522,-2.3518,-2.3529,-2.3539,-2.3548,-2.3556,-2.3562,-2.357,-2.3559,-2.3569,-2.3583,-2.3591,-2.3606,-2.3618,-2.3628,-2.3629,-2.3615,-2.3614,-2.362,-2.3622,-2.3624,-2.3622,-2.3542,-2.3612,-2.3611,-2.3611,-2.3611,-2.361,-2.3568,-2.3583,-2.3586,-2.3599,-2.3602,-2.3608,-2.3621,-2.3619,-2.363,-2.3641,-2.3635,-2.3651,-2.3655,-2.3666,-2.3669,-2.3681,-2.3671,-2.3679,-2.3681,-2.3683,-2.3685,-2.3623,-2.3683,-2.3683,-2.3683,-2.3683,-2.3683,0,-2.3629,-2.3631,-2.3643,-2.3652,-2.3662,-2.3649,-2.3655,-2.3664,-2.3679,-2.3684,-2.3693,-2.371,-2.3722,-2.372,-2.3731,-2.3742,-2.3736,-2.3745,-2.3743,-2.3743,-2.3695,-2.3688,-2.3749,-2.3749,-2.3749,-2.3749,-2.3749,-2.3749,-2.3662,-2.3685,-2.3682,-2.3706,-2.3707,-2.3723,-2.3728,-2.3733,-2.3737,-2.3756,-2.3766,-2.3764,-2.3766,-2.3777,-2.3788,-2.3787,-2.3791,-2.3802,-2.3799,-2.3754,-2.3747,-2.3741,-2.3734,-2.3804,-2.3804,-2.3846,-2.3847,-2.3847]},{"header":{"parameterUnit":"m.s-1","parameterCategory":1,"la1":30.2991,"la2":30.254,"lo1":-89.0895,"lo2":-89.0444,"dy":0.0017,"dx":0.0017,"nx":28,"ny":28,"refTime":"2024-04-17T03:00:00:Z","depth":0,"parameterNumber":3,"parameterNumberName":"V-component_of_WINDS"},"data":[0,0,0,0,0,0,0,0,0,0,0,0,0,0,0,0,0,0,0,0,0,0,0,0,0,0,0,0,0,0,0,0,0,0,0,0,0,0,0,0,0,0,0,0,0,0,0,0,0,0,0,0,0,0,0,0,0,0,2.2713,2.2713,0,2.272,2.272,2.272,2.2679,2.2677,2.2676,2.2675,2.2683,2.2684,2.2685,0,0,0,0,0,0,0,0,0,0,0,0,0,2.2664,2.2665,2.2713,2.2713,2.2713,2.272,2.272,2.272,2.2679,2.2677,2.2676,2.2674,2.2682,2.2684,2.2685,0,0,0,0,0,0,0,0,0,0,0,0,0,2.268,2.2666,2.2713,2.2693,2.2691,2.272,2.272,2.272,2.2679,2.2677,2.2675,2.2674,2.2682,2.2684,2.2686,2.2734,0,0,2.2692,2.2693,0,0,0,0,0,0,0,0,2.2679,2.2682,2.2696,2.2695,2.2693,2.2697,2.2706,2.2725,2.2679,2.2684,2.2675,2.2673,2.2689,2.269,2.2695,2.2734,2.2735,2.2692,2.2693,2.2694,2.2695,0,0,0,0,0,0,0,2.2678,2.2681,2.2716,2.2696,2.2694,2.2684,2.2685,2.2709,2.2696,2.2683,2.268,2.2682,2.2688,2.2694,2.2695,2.2735,2.2692,2.2694,2.2695,2.2696,2.2815,2.2817,0,0,0,0,0,0,2.2679,2.268,2.2716,2.2716,2.2681,2.2687,2.2687,2.2697,2.2696,2.2694,2.2683,2.268,2.2691,2.2693,2.2695,2.2753,2.2694,2.2696,2.2697,2.2813,2.2816,2.2818,0,0,0,0,0,0,2.2678,2.2683,2.2715,2.2697,2.2701,2.2689,2.2701,2.2698,2.2704,2.2696,2.2693,2.2692,2.269,2.2693,2.2725,2.2753,2.2697,2.2699,2.2811,2.2814,2.2817,2.2868,0,0,0,0,0,0,2.2677,2.2683,2.2701,2.2698,2.2702,2.2744,2.2703,2.27,2.2708,2.2703,2.2703,2.2701,2.2689,2.2722,2.2727,2.2754,2.27,2.2808,2.2812,2.2816,2.2864,2.2872,2.2879,0,0,0,0,0,2.2676,2.2714,2.2702,2.2706,2.2724,2.2746,2.2748,2.2733,2.271,2.2728,2.2723,2.2701,2.2749,2.2726,2.2731,2.2759,2.2807,2.2811,2.2815,2.286,2.287,2.2879,0,0,0,0,0,0,2.272,2.2714,2.2699,2.2738,2.2743,2.2739,2.2761,2.2744,2.2755,2.275,2.2731,2.2731,2.2767,2.2766,2.2741,2.2807,2.2774,2.2779,2.2806,2.2816,2.2824,2.2823,2.2702,0,0,0,0,0,2.2734,2.2753,2.2746,2.2781,2.2784,2.2773,2.2782,2.2769,2.2774,2.2775,2.2772,2.2777,2.2794,2.2804,2.2819,2.2863,2.2863,2.2885,2.2893,2.29,2.2905,2.293,2.294,2.2832,2.2832,2.2832,0,0,2.2764,2.2763,2.2776,2.279,2.2792,2.2813,2.2775,2.2797,2.2812,2.2779,2.2809,2.2808,2.2812,2.2851,2.2868,2.2851,2.2935,2.2905,2.2911,2.2913,2.2936,2.2946,2.2955,2.2835,2.2835,2.2834,0,0,2.2829,2.2829,2.2859,2.2863,2.2867,2.2859,2.2866,2.2865,2.2863,2.2893,2.2869,2.2887,2.2914,2.2919,2.2925,2.2994,2.2975,2.2999,2.304,2.3065,2.3073,2.3081,2.3107,2.3116,2.3004,2.3004,2.3004,0,2.2865,2.2894,2.2877,2.2902,2.2909,2.288,2.2911,2.2915,2.2924,2.293,2.2911,2.2947,2.2948,2.2988,2.3005,2.301,2.3019,2.2999,2.3074,2.3081,2.3088,2.3112,2.3121,2.3007,2.3007,2.3006,2.3006,0,2.294,2.296,2.2984,2.2994,2.3004,2.3032,2.3019,2.3032,2.3019,2.3014,2.3046,2.3046,2.3061,2.3069,2.3056,2.3109,2.3098,2.3077,2.3044,2.3101,2.3124,2.3133,2.3011,2.301,2.3009,2.3009,0,0,2.3032,2.3033,2.3042,2.3047,2.305,2.3065,2.3092,2.3107,2.3119,2.3126,2.3148,2.3173,2.3154,2.3161,2.3149,2.317,2.3226,2.3146,2.3146,2.3162,2.3285,2.3302,2.3313,2.3214,2.3215,2.3217,2.3285,0,2.3096,2.3142,2.3128,2.3174,2.3194,2.3168,2.3191,2.3196,2.3192,2.3208,2.3204,2.3222,2.3195,2.3199,2.3219,2.3215,2.3251,2.321,2.3236,2.3237,2.3236,2.3325,2.3342,2.3407,2.3294,2.3295,2.3296,0,2.3177,2.3188,2.3237,2.3238,2.3246,2.3267,2.328,2.3296,2.3301,2.3297,2.3306,2.3289,2.3317,2.3283,2.3321,2.3294,2.3303,2.3303,2.3305,2.3308,2.3271,2.333,2.3427,2.3437,2.331,2.3309,2.3308,0,2.3242,2.3268,2.3301,2.3306,2.3308,2.3324,2.3325,2.3329,2.3339,2.3351,2.3357,2.3372,2.338,2.3392,2.338,2.3357,2.3421,2.3386,2.3419,2.3419,2.3434,2.3433,2.3534,2.3438,2.3438,2.3438,2.3438,0,2.3315,2.3346,2.3331,2.3351,2.3385,2.3369,2.3404,2.3402,2.3406,2.3426,2.3404,2.3424,2.3407,2.3425,2.3417,2.345,2.3454,2.3452,2.3449,2.3454,2.3455,2.3461,2.3456,2.3441,2.344,2.344,2.3439,0,2.3393,2.3383,2.3418,2.3417,2.3418,2.3443,2.3443,2.3462,2.3457,2.3483,2.3488,2.348,2.35,2.349,2.3511,2.3505,2.3549,2.354,2.3548,2.3546,2.358,2.3577,2.3689,2.3703,2.3598,2.3599,2.3599,0,2.3441,2.3464,2.3466,2.3479,2.3482,2.3501,2.3512,2.3497,2.3509,2.3518,2.3536,2.3555,2.3569,2.3604,2.36,2.3617,2.3608,2.3646,2.3611,2.3616,2.361,2.361,2.3613,2.3654,2.3655,2.3656,2.3657,0,2.3528,2.3522,2.3538,2.3553,2.3566,2.3577,2.3586,2.3598,2.3583,2.3598,2.3619,2.363,2.3652,2.3672,2.3686,2.3688,2.3671,2.3668,2.3677,2.3683,2.3687,2.3686,2.3568,2.3666,2.3665,2.3664,2.3664,2.3663,2.3593,2.3613,2.3618,2.3637,2.3643,2.3652,2.367,2.3668,2.3685,2.3702,2.3692,2.3717,2.3724,2.3742,2.3746,2.3766,2.3751,2.3763,2.3767,2.377,2.3775,2.3683,2.3769,2.3768,2.3768,2.3768,2.3768,0,2.368,2.3682,2.37,2.3713,2.3729,2.3711,2.372,2.3734,2.3757,2.3764,2.3779,2.3804,2.3823,2.3821,2.3839,2.3855,2.3848,2.386,2.3859,2.386,2.3787,2.3778,2.3866,2.3866,2.3866,2.3866,2.3866,2.3866,2.3727,2.3761,2.3756,2.3793,2.3795,2.3819,2.3826,2.3835,2.3841,2.387,2.3886,2.3884,2.3889,2.3907,2.3924,2.3923,2.3931,2.3947,2.3943,2.3875,2.3865,2.3856,2.3848,2.3949,2.3949,2.4015,2.4016,2.4016]}]]